[[{"header":{"parameterUnit":"m.s-1","parameterCategory":1,"la1":30.2991,"la2":30.254,"lo1":-89.0895,"lo2":-89.0444,"dy":0.0017,"dx":0.0017,"nx":28,"ny":28,"refTime":"2024-07-12T03:00:00:Z","depth":0,"parameterNumber":2,"parameterNumberName":"U-component_of_WINDS"},"data":[0,0,0,0,0,0,0,0,0,0,0,0,0,0,0,0,0,0,0,0,0,0,0,0,0,0,0,0,0,0,0,0,0,0,0,0,0,0,0,0,0,0,0,0,0,0,0,0,0,0,0,0,0,0,0,0,0,0,1.1309,1.1311,0,1.15,1.1502,1.1505,1.1564,1.1563,1.1562,1.1561,1.1759,1.1765,1.1771,0,0,0,0,0,0,0,0,0,0,0,0,0,1.0994,1.0999,1.1308,1.1311,1.1313,1.15,1.1503,1.1505,1.1564,1.1563,1.1561,1.156,1.1757,1.1764,1.1772,0,0,0,0,0,0,0,0,0,0,0,0,0,1.1153,1.1001,1.1308,1.1365,1.1372,1.1499,1.1503,1.1506,1.1564,1.1563,1.1561,1.156,1.1755,1.1764,1.1773,1.1858,0,0,1.1801,1.1805,0,0,0,0,0,0,0,0,1.1143,1.1164,1.1354,1.1361,1.1369,1.1507,1.1464,1.1624,1.1564,1.1491,1.1561,1.1559,1.1676,1.1692,1.1731,1.1867,1.1876,1.1802,1.1807,1.1811,1.1814,0,0,0,0,0,0,0,1.1132,1.1156,1.1384,1.1357,1.1366,1.1381,1.1402,1.1495,1.1589,1.1497,1.1502,1.1524,1.168,1.1722,1.1736,1.1879,1.1802,1.181,1.1815,1.1819,1.2094,1.2095,0,0,0,0,0,0,1.1112,1.1147,1.1378,1.139,1.1251,1.1388,1.1411,1.1464,1.1589,1.1606,1.1525,1.1526,1.1707,1.1725,1.1743,1.185,1.1811,1.182,1.1825,1.2092,1.2094,1.2096,0,0,0,0,0,0,1.1105,1.1132,1.1371,1.127,1.1301,1.1395,1.1453,1.1468,1.151,1.1609,1.1627,1.155,1.1707,1.173,1.1829,1.1858,1.1824,1.1833,1.209,1.2092,1.2095,1.2066,0,0,0,0,0,0,1.1095,1.1129,1.1162,1.127,1.1306,1.1452,1.1455,1.1473,1.1526,1.1529,1.1638,1.1654,1.1707,1.1815,1.1838,1.187,1.184,1.2088,1.2091,1.2094,1.2064,1.2067,1.2069,0,0,0,0,0,1.1084,1.1147,1.1163,1.1191,1.135,1.1454,1.1475,1.1534,1.1528,1.1562,1.1625,1.1651,1.1851,1.1824,1.1851,1.1886,1.2086,1.209,1.2094,1.2063,1.2066,1.2069,0,0,0,0,0,0,1.104,1.1162,1.1182,1.1281,1.1357,1.1463,1.1508,1.1535,1.1614,1.1614,1.1685,1.1709,1.1802,1.1854,1.1822,1.1975,1.197,1.1979,1.1937,1.1941,1.1943,1.1928,1.1847,0,0,0,0,0,1.1042,1.1116,1.1219,1.1297,1.1333,1.1414,1.1462,1.1501,1.1582,1.1614,1.1685,1.1763,1.1844,1.1896,1.1975,1.2072,1.2097,1.211,1.2112,1.2114,1.2121,1.2175,1.2182,1.2109,1.2109,1.2109,0,0,1.1047,1.1123,1.1165,1.129,1.1353,1.1428,1.1441,1.152,1.1576,1.1627,1.1723,1.1778,1.187,1.1967,1.2014,1.2014,1.2147,1.2119,1.2119,1.2126,1.218,1.2187,1.2193,1.2111,1.2111,1.2111,0,0,1.1094,1.1159,1.123,1.1293,1.1388,1.1441,1.1458,1.1561,1.1599,1.1697,1.1736,1.1804,1.1942,1.2005,1.2056,1.2126,1.2152,1.215,1.2162,1.2214,1.222,1.2225,1.2249,1.2257,1.2157,1.2157,1.2157,0,1.1088,1.1202,1.1264,1.1341,1.1394,1.1442,1.1515,1.1573,1.1689,1.1725,1.1723,1.1896,1.1962,1.2074,1.2091,1.2131,1.2152,1.2137,1.2214,1.222,1.2226,1.225,1.2259,1.2156,1.2156,1.2156,1.2156,0,1.119,1.1268,1.1315,1.1425,1.1484,1.1558,1.1631,1.1683,1.1717,1.177,1.1869,1.1949,1.2045,1.2075,1.2109,1.2193,1.2189,1.22,1.2196,1.2231,1.2254,1.2264,1.2154,1.2155,1.2155,1.2155,0,0,1.1214,1.1357,1.1373,1.1423,1.1531,1.1593,1.1669,1.1763,1.1806,1.1884,1.195,1.2065,1.2075,1.2132,1.2174,1.2219,1.2268,1.2225,1.2228,1.2229,1.2364,1.2354,1.2364,1.2286,1.2288,1.229,1.2356,0,1.1274,1.1412,1.1469,1.1581,1.1654,1.17,1.1767,1.184,1.1892,1.1962,1.202,1.2099,1.2107,1.2142,1.2189,1.2252,1.2296,1.2248,1.2348,1.2351,1.2322,1.2377,1.2367,1.2425,1.2365,1.2367,1.2368,0,1.1362,1.144,1.1558,1.1657,1.1689,1.1748,1.1838,1.1904,1.1988,1.2023,1.2086,1.2125,1.2207,1.2198,1.2311,1.2277,1.2322,1.2359,1.2362,1.2373,1.2361,1.2388,1.2446,1.2454,1.2384,1.2382,1.2381,0,1.1366,1.1501,1.1589,1.1631,1.1748,1.1788,1.1839,1.1922,1.1974,1.2053,1.2087,1.2174,1.2222,1.2289,1.2351,1.2338,1.2458,1.2454,1.2489,1.2487,1.2512,1.2509,1.2576,1.2541,1.2541,1.2541,1.2541,0,1.1427,1.1497,1.1593,1.1647,1.1727,1.1792,1.187,1.1924,1.1997,1.2062,1.2109,1.2169,1.2247,1.2318,1.2367,1.2453,1.2475,1.2505,1.2517,1.25,1.2496,1.253,1.2527,1.2544,1.2543,1.2543,1.2542,0,1.1445,1.1512,1.1611,1.1713,1.1741,1.1795,1.1883,1.1937,1.1991,1.2073,1.2096,1.2181,1.2266,1.2334,1.2446,1.2479,1.2569,1.2583,1.254,1.2547,1.2577,1.2573,1.2667,1.2683,1.2638,1.2638,1.2638,0,1.1478,1.1533,1.1641,1.1688,1.1738,1.1813,1.1866,1.1933,1.1986,1.2086,1.2128,1.2216,1.229,1.2425,1.2496,1.2582,1.2598,1.2625,1.2611,1.2592,1.2597,1.2593,1.2598,1.2626,1.2626,1.2626,1.2626,0,1.153,1.156,1.1635,1.1721,1.1783,1.1854,1.1927,1.1962,1.2042,1.21,1.2187,1.2245,1.2358,1.2445,1.2538,1.2591,1.2622,1.263,1.2643,1.2626,1.2598,1.2613,1.2543,1.2628,1.2628,1.2628,1.2627,1.2627,1.1556,1.1607,1.1691,1.1772,1.1833,1.19,1.1955,1.2016,1.209,1.2187,1.2222,1.2311,1.2394,1.2521,1.2575,1.2646,1.2648,1.2666,1.2671,1.2674,1.2672,1.2587,1.2663,1.2663,1.2663,1.2663,1.2663,0,1.1609,1.1665,1.174,1.1839,1.1903,1.1926,1.2008,1.2059,1.2137,1.2211,1.2283,1.2383,1.2467,1.2545,1.2634,1.2676,1.2692,1.2696,1.2694,1.2705,1.2665,1.2645,1.2681,1.2681,1.2681,1.2681,1.2681,1.2681,1.1644,1.1731,1.1771,1.1889,1.1945,1.2032,1.2076,1.2138,1.2197,1.2306,1.2376,1.2426,1.2502,1.2596,1.2675,1.2695,1.2725,1.2726,1.275,1.2711,1.2708,1.2705,1.2687,1.2732,1.2732,1.2785,1.2785,1.2786]},{"header":{"parameterUnit":"m.s-1","parameterCategory":1,"la1":30.2991,"la2":30.254,"lo1":-89.0895,"lo2":-89.0444,"dy":0.0017,"dx":0.0017,"nx":28,"ny":28,"refTime":"2024-07-12T03:00:00:Z","depth":0,"parameterNumber":3,"parameterNumberName":"V-component_of_WINDS"},"data":[0,0,0,0,0,0,0,0,0,0,0,0,0,0,0,0,0,0,0,0,0,0,0,0,0,0,0,0,0,0,0,0,0,0,0,0,0,0,0,0,0,0,0,0,0,0,0,0,0,0,0,0,0,0,0,0,0,0,4.0425,4.0424,0,4.0376,4.0375,4.0375,4.0288,4.0286,4.0285,4.0283,4.0234,4.0235,4.0235,0,0,0,0,0,0,0,0,0,0,0,0,0,4.0444,4.0444,4.0425,4.0424,4.0423,4.0376,4.0375,4.0375,4.0288,4.0286,4.0284,4.0282,4.0234,4.0235,4.0235,0,0,0,0,0,0,0,0,0,0,0,0,0,4.0419,4.0444,4.0425,4.0374,4.0369,4.0376,4.0375,4.0375,4.0289,4.0286,4.0284,4.0281,4.0234,4.0234,4.0235,4.0287,0,0,4.0236,4.0236,0,0,0,0,0,0,0,0,4.0421,4.0419,4.0382,4.0378,4.0372,4.0335,4.0364,4.0345,4.0289,4.0319,4.0283,4.028,4.027,4.0267,4.0264,4.0285,4.0283,4.0236,4.0236,4.0236,4.0237,0,0,0,0,0,0,0,4.0423,4.042,4.0405,4.0382,4.0376,4.0355,4.0349,4.036,4.0309,4.0316,4.031,4.0305,4.0267,4.0264,4.0262,4.0282,4.0236,4.0236,4.0237,4.0237,4.0344,4.0346,0,0,0,0,0,0,4.0431,4.0422,4.0407,4.0404,4.0391,4.0356,4.0349,4.035,4.0309,4.03,4.0308,4.0302,4.0264,4.0262,4.026,4.0318,4.0236,4.0237,4.0237,4.0341,4.0344,4.0347,0,0,0,0,0,0,4.0432,4.0431,4.0409,4.0411,4.0407,4.0359,4.036,4.035,4.0347,4.0302,4.0293,4.0314,4.0262,4.0259,4.0281,4.0315,4.0237,4.0237,4.0338,4.0342,4.0346,4.0435,0,0,0,0,0,0,4.0433,4.0432,4.0451,4.0412,4.0407,4.0431,4.0362,4.0351,4.0348,4.0339,4.0305,4.0297,4.026,4.0281,4.0281,4.0314,4.0238,4.0335,4.034,4.0344,4.0429,4.0442,4.0452,0,0,0,0,0,4.0434,4.0478,4.0452,4.0451,4.043,4.0433,4.043,4.0385,4.0351,4.0369,4.0341,4.0298,4.0312,4.0284,4.0284,4.0317,4.0332,4.0338,4.0344,4.0424,4.0439,4.0452,0,0,0,0,0,0,4.0522,4.0472,4.0443,4.0476,4.0459,4.0418,4.044,4.0403,4.0397,4.0389,4.0335,4.0328,4.0357,4.0339,4.0309,4.0366,4.0315,4.0321,4.0376,4.039,4.0402,4.0405,4.0238,0,0,0,0,0,4.0545,4.0551,4.0508,4.0541,4.0534,4.0489,4.0489,4.0456,4.0437,4.0429,4.0402,4.0386,4.0386,4.0387,4.0385,4.0426,4.0417,4.0449,4.0461,4.0471,4.0477,4.0497,4.0511,4.0366,4.0366,4.0366,0,0,4.0593,4.0567,4.0574,4.0558,4.0541,4.0549,4.0484,4.0495,4.05,4.0431,4.0449,4.043,4.0407,4.0439,4.0451,4.0425,4.0515,4.0479,4.0487,4.0487,4.0504,4.0518,4.053,4.037,4.0369,4.0369,0,0,4.0684,4.0665,4.069,4.0675,4.0651,4.062,4.0627,4.0592,4.0575,4.0593,4.0541,4.0547,4.0549,4.0535,4.0528,4.0616,4.0576,4.0616,4.0678,4.0698,4.071,4.0719,4.075,4.0762,4.0622,4.0623,4.0623,0,4.0747,4.0756,4.0708,4.0723,4.0717,4.0655,4.0681,4.0668,4.0645,4.0643,4.0613,4.0614,4.0595,4.0622,4.0644,4.064,4.0646,4.062,4.0712,4.0721,4.073,4.0758,4.077,4.0628,4.0627,4.0627,4.0626,0,4.0834,4.0842,4.0866,4.0844,4.0841,4.0861,4.0817,4.082,4.0788,4.0761,4.078,4.0755,4.0746,4.0751,4.072,4.0774,4.0758,4.0722,4.067,4.0749,4.0775,4.0786,4.0635,4.0633,4.0632,4.063,0,0,4.0979,4.0931,4.094,4.0929,4.0898,4.0903,4.0921,4.0912,4.0916,4.0902,4.0915,4.0919,4.0884,4.0877,4.0844,4.0862,4.0932,4.0822,4.0821,4.0843,4.099,4.1017,4.1031,4.0906,4.0908,4.0909,4.0991,0,4.1063,4.1089,4.1047,4.1083,4.1089,4.1031,4.1046,4.1029,4.1005,4.1007,4.098,4.0983,4.0938,4.0933,4.0948,4.092,4.0961,4.0914,4.0918,4.0918,4.0924,4.1044,4.1073,4.1152,4.1001,4.1003,4.1004,0,4.1164,4.1155,4.1192,4.1158,4.1159,4.1174,4.1162,4.1165,4.1145,4.1126,4.1118,4.1079,4.1094,4.1045,4.1065,4.1034,4.1033,4.102,4.1022,4.102,4.0966,4.1045,4.1176,4.1188,4.102,4.1019,4.1017,0,4.1265,4.1262,4.1283,4.1276,4.1238,4.1249,4.1234,4.1211,4.1209,4.12,4.1197,4.119,4.1186,4.1182,4.1142,4.111,4.1167,4.1114,4.1151,4.1153,4.1165,4.1165,4.1298,4.1167,4.1166,4.1166,4.1166,0,4.1362,4.1387,4.1328,4.1341,4.1368,4.1319,4.1347,4.1326,4.1306,4.1314,4.1264,4.1273,4.122,4.1223,4.1193,4.1214,4.1213,4.1198,4.1189,4.1202,4.1204,4.12,4.1193,4.1169,4.1168,4.1168,4.1167,0,4.1479,4.144,4.146,4.1423,4.1414,4.1435,4.1403,4.1413,4.1386,4.1398,4.1397,4.1355,4.1356,4.1316,4.131,4.1289,4.1324,4.1306,4.1331,4.1324,4.1364,4.136,4.1498,4.1513,4.1373,4.1375,4.1376,0,4.1544,4.1561,4.1526,4.1527,4.1515,4.1518,4.1516,4.1469,4.1469,4.1447,4.1461,4.1458,4.1453,4.1458,4.1427,4.1422,4.1403,4.1451,4.1401,4.1414,4.1403,4.1402,4.1403,4.1462,4.1463,4.1465,4.1466,0,4.1662,4.1642,4.164,4.1632,4.163,4.1621,4.1609,4.1614,4.1563,4.1565,4.1566,4.1562,4.1555,4.1553,4.1542,4.1527,4.1488,4.1482,4.149,4.1503,4.1516,4.1509,4.1358,4.1479,4.1477,4.1477,4.1476,4.1475,4.1754,4.1767,4.1744,4.1743,4.173,4.172,4.1728,4.1702,4.1702,4.1692,4.1665,4.1671,4.165,4.1631,4.1619,4.1623,4.1599,4.1611,4.1614,4.1617,4.1624,4.1517,4.1621,4.162,4.162,4.1619,4.1619,0,4.1869,4.1852,4.1852,4.1837,4.1836,4.18,4.1785,4.1787,4.1793,4.1777,4.1773,4.1774,4.1772,4.1741,4.1735,4.1744,4.1726,4.1744,4.1742,4.1739,4.1646,4.164,4.1758,4.1758,4.1758,4.1758,4.1758,4.1758,4.1929,4.1949,4.1927,4.194,4.1922,4.1927,4.1921,4.1912,4.1899,4.1902,4.19,4.188,4.1857,4.185,4.1846,4.1837,4.1837,4.1861,4.1846,4.176,4.1746,4.1733,4.1726,4.1862,4.1862,4.1938,4.1939,4.194]}]]